EW8601 Weather Reports


time (UTC)temp
C
wind
direction
speed
KPH
gust
KPH
rain 1hr
cm
rain 24hr
cm
rain mn
cm
humidity
%
barometer
mb
20260503010008 0 70 0.0 0.0 0.03 0.03 0.03 96 1014.5
20260503004507 0 52 0.0 0.0 0.03 0.03 0.03 95 1014.6
20260503003005 0 280 0.0 0.0 0.00 0.00 0.00 95 1014.5
20260503001503 0 295 0.0 0.0 0.00 0.00 0.00 95 1014.3
20260503000000 0 269 0.0 0.0 0.00 0.00 0.00 94 1014.4
20260502234604 1 270 0.0 0.0 0.00 0.00 0.00 95 1014.4
20260502233057 0 284 0.0 0.0 0.00 0.00 0.00 94 1014.2
20260502231554 1 278 0.0 0.0 0.00 0.00 0.00 93 1014.3
20260502230052 1 278 0.0 0.0 0.00 0.00 0.00 94 1014.2
20260502224557 1 278 0.0 0.0 0.00 0.00 0.00 94 1014.2
20260502223049 1 269 0.0 0.0 0.00 0.00 0.00 92 1014.1
20260502221557 2 264 0.0 0.0 0.00 0.00 0.00 91 1014.2
20260502220058 3 301 0.0 0.0 0.00 0.00 0.00 91 1014.1
20260502214546 3 291 0.0 0.0 0.00 0.00 0.00 91 1014.1
20260502213045 3 299 0.0 0.0 0.00 0.00 0.00 90 1014.2
20260502211545 3 278 0.0 0.0 0.00 0.00 0.00 89 1014.3
20260502210048 3 248 0.0 0.0 0.00 0.00 0.00 87 1014.3
20260502204544 3 248 0.0 0.0 0.00 0.00 0.00 86 1014.3
20260502203040 3 269 0.0 0.0 0.00 0.00 0.00 86 1014.5
20260502201545 3 260 0.0 0.0 0.00 0.00 0.00 88 1014.7
20260502200048 4 261 0.0 8.0 0.00 0.00 0.00 86 1014.8
20260502194540 5 264 0.0 11.3 0.00 0.00 0.00 79 1014.8
20260502193040 5 253 0.0 6.4 0.00 0.00 0.00 78 1014.8
20260502191536 5 271 0.0 3.2 0.00 0.00 0.00 76 1014.9
20260502190044 5 281 0.0 1.6 0.00 0.00 0.00 80 1015.0
20260502184534 5 241 0.0 11.3 0.00 0.00 0.00 79 1015.0
20260502183032 5 279 3.2 22.5 0.00 0.00 0.00 79 1015.0
20260502181534 5 192 4.8 20.9 0.00 0.00 0.00 83 1015.0
20260502163023 6 275 4.8 29.0 0.00 0.00 0.00 79 1015.8
20260502161519 5 288 0.0 9.7 0.00 0.00 0.00 86 1016.1
20260502151533 5 221 17.7 37.0 0.00 0.00 0.00 79 1016.9
20260502123049 4 257 9.7 29.0 0.00 0.00 0.00 68 1019.2
20260502121548 4 262 12.9 29.0 0.00 0.00 0.00 64 1019.2
20260502114541 4 248 3.2 25.7 0.00 0.00 0.00 66 1019.7
20260502113048 4 239 8.0 24.1 0.00 0.00 0.00 65 1019.7
20260502111535 3 243 1.6 24.1 0.00 0.00 0.00 68 1019.9
20260502110037 3 274 11.3 25.7 0.00 0.00 0.00 65 1020.0
20260502104532 3 275 6.4 27.4 0.00 0.00 0.00 65 1020.1
20260502103032 3 247 3.2 19.3 0.00 0.00 0.00 65 1020.4
20260502101529 3 233 6.4 22.5 0.00 0.00 0.00 64 1020.4
20260502091518 2 225 6.4 24.1 0.00 0.00 0.00 67 1021.1
20260502080105 0 137 0.0 0.0 0.00 0.00 0.00 78 1021.7
20260502064557 -3 75 0.0 0.0 0.00 0.00 0.00 82 1022.2
20260502063051 -4 76 0.0 0.0 0.00 0.00 0.00 83 1022.4
20260502061544 -5 68 0.0 0.0 0.00 0.00 0.00 84 1022.5
20260502060042 -5 82 0.0 0.0 0.00 0.00 0.00 84 1022.5
20260502054541 -6 77 0.0 0.0 0.00 0.00 0.00 87 1022.6
20260502053040 -6 82 0.0 0.0 0.00 0.00 0.00 86 1022.6
20260502051537 -6 74 0.0 0.0 0.00 0.00 0.00 86 1022.8
20260502050040 -6 90 0.0 0.0 0.00 0.00 0.00 86 1022.9
20260502044536 -6 89 0.0 0.0 0.00 0.00 0.00 86 1022.9
20260502043035 -6 77 0.0 0.0 0.00 0.00 0.00 87 1023.0
20260502041533 -6 82 0.0 0.0 0.00 0.00 0.00 86 1023.0
20260502040031 -5 82 0.0 0.0 0.00 0.00 0.00 84 1023.0
20260502034529 -5 82 0.0 0.0 0.00 0.00 0.00 83 1023.1
20260502033031 -5 103 0.0 0.0 0.00 0.00 0.00 82 1023.2
20260502031527 -5 51 0.0 0.0 0.00 0.00 0.00 82 1023.1
20260502030027 -5 74 0.0 0.0 0.00 0.00 0.00 83 1023.2
20260502024526 -5 82 0.0 0.0 0.00 0.00 0.00 86 1023.2
20260502023025 -5 221 0.0 0.0 0.00 0.00 0.00 85 1023.0
20260502021523 -5 221 0.0 0.0 0.00 0.00 0.00 84 1023.2
20260502020022 -5 139 0.0 0.0 0.00 0.00 0.00 84 1023.3
20260502014520 -5 27 0.0 0.0 0.00 0.00 0.00 85 1023.1
20260502013018 -5 330 0.0 0.0 0.00 0.00 0.00 83 1023.1
20260502011515 -4 90 0.0 0.0 0.00 0.00 0.00 81 1023.2